Flag for Belgium Weather past 2 weeks in Kortrijk, Belgium

Now
59 °F

Mostly cloudy.


Feels Like: 57 °F
Forecast: 53 / 66 °F
Wind: 12 mph from Southwest

Location: Lille Airport

Current Time: Jul 28, 2015 at 3:40:33 AM

Latest Report: Jul 28, 2015 at 3:00 AM


Visibility: N/A

Pressure: 29.71 "Hg

Humidity: 72%

Dew point: 50 °F

Location of KortrijkLocation

Historic Weather in Kortrijk — Graph

°F

Kortrijk temperature yesterday

Maximum temperature yesterday: 68 °F (at 3:00 PM)
Minimum temperature yesterday: 57 °F (at 12:30 AM)
Average temperature yesterday: 62 °F

Past Weeks' High & Low Weather Summary

 TemperatureHumidityPressure
High84 °F (Jul 16, 4:30 PM)100% (Jul 14, 6:00 AM)30.12 "Hg (Jul 14, 6:00 AM)
Low48 °F (Jul 26, 5:30 AM)31% (Jul 18, 8:00 PM)29.50 "Hg (Jul 25, 3:00 AM)
Average66 °F74%29.93 "Hg
* Reported Jul 13 2:00 AM — Jul 28 2:30 AM, Kortrijk, Weather by CustomWeather, © 2015

Note: Actual official high and low records may vary slightly from our data, if they occured in-between our weather recording intervals... More about our weather records

Advertising

Kortrijk weather history for previous 24 hours

 ConditionsComfort  
Time TempWeatherWind HumidityBarometerVisibility
2:30 AM
Tue, Jul 28
59 °FMostly cloudy.12 mph72%29.71 "HgN/A
2:00 AM59 °FOvercast.13 mph72%29.71 "HgN/A
1:30 AM59 °FPassing clouds.15 mph68%29.71 "HgN/A
1:00 AM59 °FClear.14 mph72%29.71 "Hg10 mi
12:00 AM59 °FClear.14 mph72%29.71 "Hg10 mi
11:30 PM
Mon, Jul 27
61 °FClear.15 mph68%29.71 "Hg10 mi
11:00 PM61 °FOvercast.16 mph68%29.71 "HgN/A
10:30 PM61 °FOvercast.17 mph68%29.71 "HgN/A
10:00 PM61 °FPartly sunny.20 mph68%29.71 "HgN/A
9:30 PM63 °FMore clouds than sun.18 mph64%29.71 "HgN/A
9:00 PM63 °FMore clouds than sun.18 mph59%29.71 "HgN/A
8:30 PM63 °FCloudy.21 mph59%29.71 "HgN/A
8:00 PM63 °FMore clouds than sun.26 mph64%29.68 "HgN/A
7:30 PM64 °FPartly sunny.28 mph60%29.68 "HgN/A
7:00 PM66 °FPartly sunny.26 mph56%29.68 "HgN/A
6:30 PM66 °FPartly sunny.24 mph60%29.65 "HgN/A
6:00 PM66 °FBroken clouds.24 mph64%29.65 "HgN/A
5:30 PM66 °FBroken clouds.22 mph68%29.65 "HgN/A
5:00 PM66 °FLight rain. Partly sunny.20 mph73%29.65 "HgN/A
4:30 PM66 °FBroken clouds.21 mph73%29.65 "HgN/A
4:00 PM66 °FPartly sunny.24 mph78%29.65 "HgN/A
3:30 PM68 °FPartly sunny.25 mph60%29.62 "HgN/A
3:00 PM68 °FBroken clouds.23 mph60%29.62 "HgN/A
2:30 PM66 °FMostly cloudy.24 mph64%29.62 "HgN/A
2:00 PM66 °FMostly cloudy.24 mph68%29.62 "HgN/A
1:30 PM64 °FBroken clouds.18 mph73%29.62 "HgN/A
1:00 PM64 °FPartly sunny.16 mph73%29.62 "HgN/A
12:30 PM63 °FPartly sunny.22 mph77%29.62 "HgN/A
12:00 PM63 °FPartly sunny.17 mph77%29.59 "HgN/A
11:30 AM63 °FMostly cloudy.17 mph77%29.59 "HgN/A
11:00 AM61 °FBroken clouds.15 mph88%29.59 "HgN/A
10:30 AM61 °FOvercast.14 mph88%29.59 "HgN/A
10:00 AM59 °FOvercast.13 mph94%29.59 "HgN/A
9:30 AM61 °FOvercast.15 mph83%29.56 "HgN/A
9:00 AM61 °FMostly cloudy.16 mph88%29.56 "HgN/A
8:30 AM59 °FMostly cloudy.15 mph94%29.56 "HgN/A
8:00 AM59 °FMostly cloudy.14 mph94%29.56 "HgN/A
7:30 AM59 °FMostly cloudy.15 mph94%29.56 "HgN/A
7:00 AM59 °FDrizzle. Mostly cloudy.14 mph94%29.56 "Hg4 mi
6:30 AM59 °FMostly cloudy.14 mph88%29.53 "HgN/A
6:00 AM59 °FMostly cloudy.13 mph88%29.53 "HgN/A
5:00 AM59 °FMostly cloudy.12 mph88%29.53 "HgN/A
4:30 AM59 °FPassing clouds.14 mph94%29.53 "HgN/A
4:00 AM59 °FPassing clouds.12 mph88%29.53 "HgN/A
3:30 AM59 °FPassing clouds.9 mph88%29.53 "HgN/A
3:00 AM59 °FPassing clouds.9 mph88%29.53 "HgN/A
Weather by CustomWeather, © 2015

See weather overviewHow to use our weather pages